Shawnee, OK

3:05 PM CST on November 22, 2017 (GMT -0600)
Shawnee Municipal

Weather History for KSNL - July, 2013

Change the Weather History Date:

Monday, July 1, 2013

  Actual Average (KTIK) Record (KTIK)
Temperature  
Mean Temperature 77 °F -  
Max Temperature 86 °F 86 °F 100 °F (2011)
Min Temperature 68 °F 68 °F 62 °F (2013)
Cooling Degree Days 12    
Growing Degree Days 27 (Base 50)    
Moisture  
Dew Point 57 °F    
Average Humidity 49    
Maximum Humidity 73    
Minimum Humidity 33    
Precipitation  
Precipitation 0.00 in - - ()
Sea Level Pressure  
Sea Level Pressure 30.08 in    
Wind  
Wind Speed 8 mph (North)    
Max Wind Speed 18 mph    
Max Gust Speed 24 mph    
Visibility 10 miles    
Events      
Averages and records for this station are not official NWS values.
T = Trace of Precipitation, MM = Missing Value Source: NWS Daily Summary

Daily Weather History Graph

Daily Weather History Graph

Search for Another Location

Airport or City:

Trip Planner

Search our weather history database for the weather conditions in past years. The results will help you decide how hot, cold, wet, or windy it might be!

Date:

Astronomy

Jul. 01, 2013 Rise Set
Actual Time 6:16 AM CDT 8:46 PM CDT
Civil Twilight 5:46 AM CDT 9:16 PM CDT
Nautical Twilight 5:09 AM CDT 9:53 PM CDT
Astronomical Twilight 4:29 AM CDT 10:33 PM CDT
Moon 1:38 AM CDT (7/1) 3:10 PM CDT (7/1)
Length of Visible Light 15h 29m
Length of Day
14h 30m
Waning Crescent, 35% of the Moon is Illuminated
Jul 1
Waning Crescent
Jul 8
New
Jul 15
First Quarter
Jul 22
Full
Jul 29
Last Quarter

Hourly Weather History & Observations

Time (CDT) Temp. Heat Index Dew Point Humidity Pressure Visibility Wind Dir Wind Speed Gust Speed Precip Events Conditions
9:35 AM 77.0 °F - 62.6 °F 61% 30.12 in 10.0 mi North 6.9 mph - N/A   Clear
10:15 AM 78.8 °F - 62.6 °F 57% 30.12 in 10.0 mi North 8.1 mph - N/A   Clear
12:35 PM 82.4 °F 82.9 °F 60.8 °F 48% 30.11 in 10.0 mi NNE 11.5 mph 18.4 mph N/A   Scattered Clouds
2:15 PM 82.4 °F 82.0 °F 57.2 °F 42% 30.09 in 10.0 mi NE 13.8 mph 21.9 mph N/A   Scattered Clouds
2:35 PM 84.2 °F 83.0 °F 55.4 °F 37% 30.09 in 10.0 mi North 15.0 mph 20.7 mph N/A   Scattered Clouds
3:35 PM 86.0 °F 84.2 °F 53.6 °F 33% 30.08 in 10.0 mi NNE 11.5 mph - N/A   Scattered Clouds
3:55 PM 86.0 °F 84.2 °F 53.6 °F 33% 30.07 in 10.0 mi North 18.4 mph - N/A   Scattered Clouds
5:15 PM 84.2 °F 82.8 °F 53.6 °F 35% 30.07 in 10.0 mi North 11.5 mph 24.2 mph N/A   Scattered Clouds
5:35 PM 84.2 °F 83.0 °F 55.4 °F 37% 30.07 in 10.0 mi North 13.8 mph - N/A   Clear
6:15 PM 84.2 °F 83.0 °F 55.4 °F 37% 30.06 in 10.0 mi North 15.0 mph - N/A   Clear
6:35 PM 82.4 °F 81.4 °F 53.6 °F 37% 30.06 in 10.0 mi NNE 10.4 mph - N/A   Clear
6:55 PM 82.4 °F 81.4 °F 53.6 °F 37% 30.06 in 10.0 mi North 10.4 mph - N/A   Clear
7:15 PM 82.4 °F 81.4 °F 53.6 °F 37% 30.06 in 10.0 mi North 10.4 mph - N/A   Clear
7:35 PM 82.4 °F 81.4 °F 53.6 °F 37% 30.06 in 10.0 mi NNE 8.1 mph - N/A   Clear
7:55 PM 82.4 °F 81.7 °F 55.4 °F 39% 30.06 in 10.0 mi North 5.8 mph - N/A   Clear
8:15 PM 80.6 °F 80.5 °F 55.4 °F 42% 30.07 in 10.0 mi North 5.8 mph - N/A   Clear
8:35 PM 78.8 °F - 55.4 °F 44% 30.07 in 10.0 mi North 4.6 mph - N/A   Clear
8:55 PM 77.0 °F - 57.2 °F 50% 30.07 in 10.0 mi North 4.6 mph - N/A   Clear
9:15 PM 77.0 °F - 59.0 °F 54% 30.07 in 10.0 mi Calm Calm - N/A   Clear
9:35 PM 73.4 °F - 59.0 °F 61% 30.08 in 10.0 mi North 3.5 mph - N/A   Clear
9:55 PM 71.6 °F - 59.0 °F 64% 30.09 in 10.0 mi Calm Calm - N/A   Clear
10:15 PM 71.6 °F - 59.0 °F 64% 30.09 in 10.0 mi Calm Calm - N/A   Clear
10:35 PM 71.6 °F - 59.0 °F 64% 30.10 in 10.0 mi NNE 3.5 mph - N/A   Clear
10:55 PM 71.6 °F - 59.0 °F 64% 30.10 in 10.0 mi Calm Calm - N/A   Clear
11:15 PM 71.6 °F - 60.8 °F 69% 30.11 in 10.0 mi North 3.5 mph - N/A   Clear
11:35 PM 68.0 °F - 59.0 °F 73% 30.11 in 10.0 mi Calm Calm - N/A   Clear
11:55 PM 68.0 °F - 59.0 °F 73% 30.11 in 10.0 mi Calm Calm - N/A   Clear